Cold Bay, AK

12:03 AM AKST on February 10, 2016 (GMT -0900)
Cold Bay

Weather History for PACD - January, 2014

Change the Weather History Date:

Friday, January 10, 2014

  Actual Average Record
Temperature  
Mean Temperature 34 °F 28 °F  
Max Temperature 39 °F 33 °F 47 °F (1952)
Min Temperature 29 °F 24 °F 3 °F (2001)
Degree Days  
Heating Degree Days 31 37  
Month to date heating degree days 273 362  
Since 1 July heating degree days 3619 4439  
Cooling Degree Days 0    
Month to date cooling degree days 0  
Year to date cooling degree days 0  
Moisture  
Dew Point 30 °F    
Average Humidity 79    
Maximum Humidity 87    
Minimum Humidity 65    
Precipitation  
Precipitation 0.01 in 0.11 in 1.02 in (1957)
Month to date precipitation 0.83 1.07  
Year to date precipitation 0.83 1.07  
Snow  
Snow T in 0.50 in 13.40 in (2000)
Month to date snowfall T 4.6  
Since 1 July snowfall 10.9 29.8  
Snow Depth 0.00 in    
Sea Level Pressure  
Sea Level Pressure 29.26 in    
Wind  
Wind Speed 12 mph (SSE)    
Max Wind Speed 30 mph    
Max Gust Speed 38 mph    
Visibility 10 miles    
Events Rain , Snow    
T = Trace of Precipitation, MM = Missing Value Source: NWS Daily Summary

Daily Weather History Graph

Daily Weather History Graph

Search for Another Location

Airport or City:

Trip Planner

Search our weather history database for the weather conditions in past years. The results will help you decide how hot, cold, wet, or windy it might be!

Date:

Astronomy

Jan. 10, 2014 Rise Set
Actual Time 10:12 AM AKST 5:45 PM AKST
Civil Twilight 9:27 AM AKST 6:29 PM AKST
Nautical Twilight 8:41 AM AKST 7:16 PM AKST
Astronomical Twilight 7:57 AM AKST 8:00 PM AKST
Moon 2:10 PM AKST 5:15 AM AKST
Length of Visible Light 9h 01m
Length of Day
7h 33m
Waxing Gibbous, 76% of the Moon is Illuminated
Jan 10
Waxing Gibbous
Jan 15
Full
Jan 23
Last Quarter
Jan 30
New
Feb 6
First Quarter

Hourly Weather History & Observations

Time (AKST) Temp. Windchill Dew Point Humidity Pressure Visibility Wind Dir Wind Speed Gust Speed Precip Events Conditions
12:53 AM 37.0 °F 31.6 °F 32.0 °F 82% 29.39 in 10.0 mi SE 6.9 mph - N/A   Mostly Cloudy
1:53 AM 37.0 °F 31.0 °F 30.9 °F 79% 29.38 in 10.0 mi SSE 8.1 mph - N/A   Overcast
2:53 AM 36.0 °F 33.3 °F 30.9 °F 82% 29.38 in 10.0 mi SSE 3.5 mph - N/A   Scattered Clouds
3:53 AM 35.1 °F - 28.9 °F 78% 29.38 in 10.0 mi Calm Calm - N/A   Scattered Clouds
4:53 AM 33.1 °F 26.9 °F 28.0 °F 82% 29.37 in 10.0 mi South 6.9 mph - N/A   Scattered Clouds
5:53 AM 35.1 °F 26.9 °F 30.0 °F 82% 29.36 in 10.0 mi South 11.5 mph - N/A   Scattered Clouds
6:53 AM 35.1 °F 32.2 °F 28.9 °F 78% 29.36 in 10.0 mi SSE 3.5 mph - N/A   Scattered Clouds
7:53 AM 32.0 °F - 27.0 °F 82% 29.35 in 10.0 mi Calm Calm - N/A   Partly Cloudy
8:53 AM 30.9 °F - 25.0 °F 79% 29.36 in 10.0 mi Calm Calm - N/A   Partly Cloudy
9:53 AM 33.1 °F - 26.1 °F 75% 29.37 in 10.0 mi Calm Calm - N/A   Partly Cloudy
10:53 AM 33.1 °F 30.0 °F 25.0 °F 72% 29.37 in 10.0 mi SSE 3.5 mph - N/A   Partly Cloudy
11:53 AM 39.0 °F 35.7 °F 28.0 °F 65% 29.37 in 10.0 mi South 4.6 mph - N/A   Partly Cloudy
12:53 PM 37.0 °F 27.4 °F 30.0 °F 76% 29.34 in 10.0 mi SSE 17.3 mph - N/A   Partly Cloudy
1:53 PM 37.0 °F 28.1 °F 30.9 °F 79% 29.33 in 10.0 mi SSE 15.0 mph - N/A   Scattered Clouds
2:53 PM 37.0 °F 28.9 °F 30.9 °F 79% 29.31 in 10.0 mi SSE 12.7 mph - 0.00 in Rain Light Rain
3:53 PM 37.9 °F 28.9 °F 30.9 °F 76% 29.28 in 10.0 mi SSE 16.1 mph 23.0 mph 0.00 in   Overcast
4:53 PM 37.0 °F 28.5 °F 30.9 °F 79% 29.28 in 10.0 mi SE 13.8 mph - N/A   Overcast
5:11 PM 35.6 °F 27.5 °F 30.2 °F 81% 29.26 in 3.0 mi SSE 11.5 mph - 0.01 in Snow Light Snow
5:21 PM 35.6 °F 27.1 °F 30.2 °F 81% 29.26 in 10.0 mi SSE 12.7 mph - 0.01 in   Overcast
5:53 PM 37.0 °F 27.7 °F 32.0 °F 82% 29.24 in 10.0 mi SE 16.1 mph - 0.01 in   Overcast
6:53 PM 37.9 °F 27.9 °F 30.0 °F 73% 29.21 in 10.0 mi SE 19.6 mph - N/A   Overcast
7:53 PM 37.9 °F 27.3 °F 30.9 °F 76% 29.17 in 10.0 mi SE 21.9 mph - N/A   Overcast
8:28 PM 37.4 °F 25.9 °F 32.0 °F 81% 29.14 in 9.0 mi SE 25.3 mph 33.4 mph 0.00 in Rain Light Rain
8:38 PM 37.4 °F 26.1 °F 33.8 °F 87% 29.13 in 10.0 mi SE 24.2 mph - 0.00 in Rain Light Rain
8:53 PM 37.0 °F 25.1 °F 33.1 °F 86% 29.13 in 10.0 mi SE 26.5 mph 33.4 mph 0.00 in Rain Light Rain
9:53 PM 37.0 °F 26.2 °F 33.1 °F 86% 29.10 in 10.0 mi SE 21.9 mph - 0.00 in   Overcast
10:22 PM 37.4 °F 25.6 °F 33.8 °F 87% 29.08 in 10.0 mi SE 26.5 mph 34.5 mph N/A   Overcast
10:53 PM 37.0 °F 24.9 °F 33.1 °F 86% 29.06 in 10.0 mi SE 27.6 mph - N/A   Overcast
11:22 PM 37.4 °F 25.9 °F 33.8 °F 87% 29.04 in 10.0 mi SE 25.3 mph 34.5 mph 0.00 in   Overcast
11:53 PM 37.9 °F 26.3 °F 34.0 °F 86% 29.02 in 10.0 mi SE 26.5 mph - 0.00 in   Overcast